Regional Weather Roundup
Issued by NWS

Home | Current Version | Previous Version | Text Only | Print | Product List | Glossary On
Versions: 1 2 3 4 5 6 7 8 9 10 11 12 13 14 15 16 17 18 19 20 21 22 23 24 25 26 27 28 29 30 31 32 33 34 35 36 37 38 39 40 41 42 43 44 45 46 47 48 49 50
000
ASUS46 KPQR 231810
RWROR

OREGON REGIONAL WEATHER ROUNDUP
NATIONAL WEATHER SERVICE PORTLAND OR
1100 AM PDT TUE SEP 23 2014

NOTE: "FAIR" INDICATES FEW OR NO CLOUDS BELOW 12,000 FEET WITH
NO SIGNIFICANT WEATHER AND/OR OBSTRUCTIONS TO VISIBILITY.

ORZ001>013-231900-
NORTHWEST OREGON


CITY           SKY/WX    TMP DP  RH WIND       PRES   REMARKS
ASTORIA        CLOUDY    63  60  90 CALM      29.81S
6HR MIN TEMP:  59; 6HR MAX TEMP:  63; 6HR PCP:  0.25;

NEWPORT        CLOUDY    64  61  88 SW13G20   29.88S
PORTLAND       CLOUDY    66  58  75 S7        29.86S
6HR MIN TEMP:  60; 6HR MAX TEMP:  66;

VANCOUVER WA   CLOUDY    65  57  75 SE5       29.85S
6HR MIN TEMP:  59; 6HR MAX TEMP:  65;

SCAPPOOSE      CLOUDY    63  60  90 CALM      29.84F
6HR MIN TEMP:  56; 6HR MAX TEMP:  63; 6HR PCP:  0.01;

HILLSBORO      CLOUDY    63  59  87 S3        29.86R
6HR MIN TEMP:  56; 6HR MAX TEMP:  63;

AURORA         CLOUDY    63  58  83 S5        29.88S
6HR MIN TEMP:  57; 6HR MAX TEMP:  64;

MCMINNVILLE    CLOUDY    61  59  93 SE3       29.86F
6HR MIN TEMP:  55; 6HR MAX TEMP:  61;

SALEM          CLOUDY    64  58  80 S6        29.85F
6HR MIN TEMP:  56; 6HR MAX TEMP:  64; 6HR PCP: TRACE;

CORVALLIS      CLOUDY    61  57  88 CALM      29.88S
EUGENE         CLOUDY    64  57  78 S6        29.87F
6HR MIN TEMP:  54; 6HR MAX TEMP:  64;

$$

ORZ021-028-231900-
SOUTHWEST OREGON


CITY           SKY/WX    TMP DP  RH WIND       PRES   REMARKS
NORTH BEND     CLOUDY    64  64 100 CALM      29.87S
6HR MIN TEMP:  61; 6HR MAX TEMP:  64; 6HR PCP:  0.01;

BROOKINGS      CLOUDY    62  60  93 SE6       29.93S
ROSEBURG       CLOUDY    65  55  70 CALM      29.87F
6HR MIN TEMP:  56; 6HR MAX TEMP:  65;

SEXTON SUMMIT  CLOUDY    59  47  64 S14G23    29.98F
6HR MIN TEMP:  54; 6HR MAX TEMP:  59;

MEDFORD        CLOUDY    68  45  43 CALM      29.92F
6HR MIN TEMP:  59; 6HR MAX TEMP:  68;

$$

ORZ009-041-231900-
COLUMBIA GORGE


CITY           SKY/WX    TMP DP  RH WIND       PRES   REMARKS
TROUTDALE      CLOUDY    66  55  67 SE3       29.85S
6HR MIN TEMP:  58; 6HR MAX TEMP:  66;

THE DALLES     CLOUDY    68  53  58 N3        29.85F
6HR MIN TEMP:  57; 6HR MAX TEMP:  68;

$$

ORZ029>031-042>050-061>064-231900-
EASTERN OREGON


CITY           SKY/WX    TMP DP  RH WIND       PRES   REMARKS
REDMOND        CLOUDY    70  45  40 S5        29.95F
6HR MIN TEMP:  54; 6HR MAX TEMP:  71;

BEND           CLOUDY    68  46  45 CALM      29.98F
KLAMATH FALLS  CLOUDY    70  43  37 S16       30.04F
6HR MIN TEMP:  55; 6HR MAX TEMP:  70;

LAKEVIEW       PTSUNNY   72  39  30 S16G23    30.12S
HERMISTON      CLOUDY    72  53  51 W6        29.86R
6HR MIN TEMP:  57; 6HR MAX TEMP:  72;

PENDLETON      CLOUDY    71  54  54 NW7       29.88R
6HR MIN TEMP:  59; 6HR MAX TEMP:  71;

JOHN DAY       CLOUDY    72  49  44 CALM      30.02S
MEACHAM        CLOUDY    66  56  70 CALM      30.00R
6HR MIN TEMP:  54; 6HR MAX TEMP:  66;

LA GRANDE      CLOUDY    64  52  63 E7        29.98S
6HR MIN TEMP:  54; 6HR MAX TEMP:  64;

BAKER CITY     CLOUDY    67  56  67 SE12      30.02S
6HR MIN TEMP:  51; 6HR MAX TEMP:  68;

BURNS            N/A     67  49  52 CALM        N/A
6HR MIN TEMP:  65; 6HR MAX TEMP:  87;

ROME             N/A     75  44  33 VRB5      30.06F
6HR MIN TEMP:  52; 6HR MAX TEMP:  75;

ONTARIO        MOSUNNY   73  56  54 SE8       30.01F
6HR MIN TEMP:  58; 6HR MAX TEMP:  73;

$$


USA.gov is the U.S. government's official web portal to all federal, state and local government web resources and services.